Showing default

CARBSAR, 67397

Orbit data source: Space-Track

CARBSAR, 67397 is a payload satellite owned by SSTL (UK) in SSO that was launched on Sun, 11 Jan 2026 UTC via an FALCON 9 launch vehicle from the Air Force Western Test Range (AFWTR). Payload-class satellites include a variety of spacecraft equipped with specific instruments for various scientific and technological missions. These include communications satellites like Starlink; space stations such as the ISS; scientific satellites like the Hubble; Earth observation satellites from companies like Planet Labs, Umbra, and HawkEye 360; GPS; miniature CubeSats for education and research; and military/defense satellites.

Loading next visibility...
Identifier
67397, 2026-004AL
Orbit
SSO
Country
Flag of UKUK
Related business
Manufacturer
SSTL
Mission
Operational Commercial Radar Imaging
Bus & Motor
SSTL-42, Unknown motor
Mass
100 kg wet, 100 kg dry
Launch date (UTC)
2026-01-11 (8 months ago)
Launch vehicle
FALCON 9
Launch site
Air Force Western Test Range (AFWTR)
Object type
Payload
Rocket body
Debris
Shape & HBR
Box + 1 Dish, 1.0 m
Radar Cross Section
0.735 m², Large (>1 m²)

Expand to show TLE details & history
Last TLE update: 17 hours ago

TLE from 17 hours ago
0 CARBSAR
1 67397U 26004AL  26264.21868292  .00004467  00000-0  20722-3 0  9999
2 67397  97.4607 262.3012 0005904  20.6000 339.5473 15.20546050 38350
Epoch: 2026-09-21T05:14Z
TLE epoch observation values (Epoch: 2026-09-21T05:14:54.204Z)
Latitude
0.00007°
Longitude
-176.52632°
Altitude
503.474 km
Speed
7.615 km/s
True Right ascension
17h 29m 12s
True Declination
0° 00' 00"
Sunlit
Object was in daylight at epoch
Visualization orbit readout
Latitude
Unknown
Longitude
Unknown
Altitude
Unknown
Speed
Unknown
Apparent Right ascension
Unknown
Apparent Declination
Unknown
Sunlit
N/A
Visualization observer readout
Local Sidereal Time
15:38:12
Azimuth
Unknown
Elevation
Unknown
Doppler factor
Unknown
Orbital elements
Apogee altitude
505.221 km
Perigee altitude
497.098 km
Semi-major axis
6,879.297 km
Eccentricity
0.00059
Inclination
97.4607°
RAAN
262.3012°
Arg. of periapsis
20.6°
True anomaly
339.52364°
Mean anomaly
339.5473°
Eccentric anomaly
339.53547°
Mean motion
3.80388 °/min
Orbital period
94.64 mins
BSTAR
0.00020722
Loading maneuver chart data...
Computing Atmospheric mass density...
Loading historical data...
Loading historical data...
Loading historical data...
Loading historical data...
Loading historical data...
Loading historical data...
Loading historical data...

Documentation

Showing up to 5 results
|